カタログに戻る

SL-8 R/B

運用中LEO
NORAD 19770·ROCKET BODY·🇷🇺 Russia

打ち上げ Jan 26, 1989 から Plesetsk Cosmodrome

Loading…

次のパス (今後24時間)

TLE

最新Source: Space-Track

元期: Sep 14, 2026, 02:10 UTC

1 19770U 89005B   26257.09029429  .00000095  00000-0  38164-4 0  9993
2 19770  74.0445 302.8712 0005924 267.8422 117.5046 14.40383164971953

AllMySatでSL-8 R/Bをリアルタイム追跡

Download on the App Store